Regional Weather Roundup
Issued by NWS

Home | Current Version | Previous Version | Graphics & Text | Print | Product List | Glossary On
Versions: 1 2 3 4 5 6 7 8 9 10 11 12 13 14 15 16 17 18 19 20 21 22 23 24 25 26 27 28 29 30 31 32 33 34 35 36 37 38 39 40 41 42 43 44 45 46 47 48 49 50
000
ASUS44 KMEG 021610
RWRTN
TENNESSEE HOURLY STATE WEATHER ROUNDUP
NATIONAL WEATHER SERVICE MEMPHIS TN
1000 AM CST MON MAR 02 2015

TNZ002-004-019-021-049-052-054-088>092-021700-
WEST TENNESSEE

CITY           SKY/WX    TMP DP  RH WIND       PRES   REMARKS
MEMPHIS INTL   CLOUDY    37  28  70 NE13      30.44F WCI  29
NWS MEMPHIS      N/A     36 N/A N/A MISG        N/A
JACKSON        SUNNY     38  28  67 E14       30.47S WCI  30
DYERSBURG      PTSUNNY   34  16  47 NE14      30.50F WCI  24
UNION CITY     SUNNY     32  23  69 E12       30.50S WCI  23
PARIS          SUNNY     32  21  64 NE13      30.49F WCI  22
LEXINGTON      SUNNY     37  27  65 NE12      30.45F WCI  30
SAVANNAH       CLOUDY    37  34  87 NE6       30.45S WCI  33
$$

TNZ008-025-027-028-033-062-065-066-021700-
NORTH MIDDLE TENNESSEE

CITY           SKY/WX    TMP DP  RH WIND       PRES   REMARKS
NASHVILLE      PTSUNNY   37  30  75 NE8       30.49S WCI  31
CLARKSVILLE    SUNNY     34  24  67 E12       30.52R WCI  25
SMYRNA         PTSUNNY   38  32  79 NE9       30.50S WCI  31
COOKEVILLE     CLOUDY    34  32  93 VRB5      30.44R WCI  30
CROSSVILLE     CLOUDY    34  31  88 NE9       30.41R WCI  27
$$

TNZ061-075-076-078-094-096-097-021700-
SOUTH MIDDLE TENNESSEE

CITY           SKY/WX    TMP DP  RH WIND       PRES   REMARKS
FAYETTEVILLE   CLOUDY    34  34 100 N12         N/A  WCI  25
TULLAHOMA      CLOUDY    36  34  93 NE9       30.43R WCI  29
WINCHESTER     CLOUDY    37  36  93 N8        30.42F WCI  31
MCMINNVILLE    PTSUNNY   36  36 100 NE12      30.44S WCI  27
COLUMBIA       CLOUDY   N/A N/A N/A NE10      30.45F
SHELBYVILLE    CLOUDY    36  34  93 NE8       30.46S WCI  29
$$

TNZ017-018-042-046-047-021700-
NORTHEAST TENNESSEE

CITY           SKY/WX    TMP DP  RH WIND       PRES   REMARKS
TRI CITIES     CLOUDY    40  34  79 N5        30.39F
ELIZABETHTON   CLOUDY    39  36  87 VRB3      30.37F
$$

TNZ012-013-036-069-073-074-021700-
CENTRAL EAST TENNESSEE

CITY           SKY/WX    TMP DP  RH WIND       PRES   REMARKS
KNOXVILLE      CLOUDY    40  35  83 NE10      30.43R WCI  33
OAK RIDGE      PTSUNNY   43  35  73 N8        30.45R
GATLINBURG     CLOUDY    39  37  93 N3        30.42S
MORRISTOWN     PTSUNNY   37  36  93 NW6       30.42S WCI  33
$$

TNZ083-085-099-021700-
SOUTHEAST TENNESSEE

CITY           SKY/WX    TMP DP  RH WIND       PRES   REMARKS
CHATTANOOGA    CLOUDY    46  39  76 N12       30.41S
$$

SKY/WX REPORTED AS FAIR MEANS FEW OR NO CLOUDS BELOW
12 THOUSAND FEET.



USA.gov is the U.S. government's official web portal to all federal, state and local government web resources and services.